Location: Newark
(41.0400°S, 62.7845°W)
Time: 15:50:43
(UTC+00:00)

N. Korean satellite - Pass Details

Date: 01 November 2021
Orbit: 447 x 495 km, 97.3° (Epoch: 30 November)

Event Time Altitude Azimuth Distance (km) Brightness Sun altitude
Rises 08:24:03 0° 22° (NNE) 2,475 10.1 -6.7°
Reaches altitude 10° 08:26:06 10° 25° (NNE) 1,604 9.2 -6.3°
Maximum altitude 08:29:29 58° 105° (ESE) 544 7.2 -5.8°
Drops below altitude 10° 08:32:53 10° 184° (S) 1,615 9.5 -5.2°
Sets 08:34:58 0° 187° (S) 2,496 10.4 -4.8°
